Weather in Ulyatuy

Russia / Zabaykalsky Krai     51°10′06″N   116°14′35″E
temp.,
°C
wind,
m/s
gust,
m/s
humid.,
%
clouds,
%
prec.,
mm/h
press.,
hPa
HPBL,
m
26 february, fri
fri2600:00−19e229539 0.0 103020
03:00−19sse119269 0.0 102920
06:00−16ese1190100 0.0 102725
09:00−15e1288100 0.0 102629
12:00−10sse41075100 0.0 1023706
15:00−9sse5880100 0.0 1020717
18:00−11s2389100 0.0 1018126
21:00−13ne1191100 0.0 101721
27 february, sat
sat2700:00−14ene2396100 0.6 1013140
03:00−13nne2396100 2.6 1010142
06:00−14nw2397100 2.8 1010178
09:00−18nw3699100 3.2 1013206
12:00−15wnw498996 0.0 1016545
15:00−13wnw9128092 0.1 10171086
18:00−15w61386100 0.0 1021655
21:00−18wnw7158580 0.0 1026399
28 february, sun
sun2800:00−21wnw615820 0.0 1030380
03:00−25w411860 0.0 1033205
06:00−28w33860 0.0 103626
09:00−29wsw23860 0.0 103826
12:00−23w37810 0.0 1038464
15:00−20wnw57760 0.0 1037795
18:00−22wsw23840 0.0 103825
21:00−26sw22840 0.0 104120
1 march, mon
mon100:00−27ssw12830 0.0 104220
03:00−27s33810 0.0 104319
06:00−27s227967 0.0 104219
09:00−27s338367 0.0 104232
12:00−21ssw248567 0.0 1038314
15:00−19sw358653 0.0 1035502
18:00−20s469485 0.0 1033156
21:00−21s339890 0.3 103463
2 march, tue
tue200:00−21s3397100 0.1 103345
03:00−23s3397100 0.2 103236
06:00−23s3398100 0.1 103128
09:00−25s2399100 0.1 103026
12:00−20sw1293100 0.0 1028260
15:00−18wsw2289100 0.1 1026358
18:00−21ssw119590 0.0 102520
21:00−24se229257 0.0 102620